Location: ???????
(55.4362°N, 38.1183°E)
Time: 16:53:26
(UTC+00:00)

Cosmos 2333 Rocket - Pass Details

Date: 29 October 2021
Orbit: 837 x 865 km, 70.8° (Epoch: 04 December)

Event Time Altitude Azimuth Distance (km) Brightness Sun altitude
Exits shadow 00:49:52 37° 142° (SE) 1,315 3.2 -30.7°
Drops below altitude 10° 00:53:15 10° 145° (SE) 2,504 4.8 -30.3°
Sets 00:55:42 0° 146° (SE) 3,438 5.5 -30.0°
